Tracking 25710 objects as of 5-Jul-2022
HD Live streaming from Space Station
objects crossing your sky now

FENGYUN 1C DEB

Track FENGYUN 1C DEB now!
10-day predictions


NORAD ID: 35240
Int'l Code: 1999-025DQY
Perigee: 823.3 km
Apogee: 908.4 km
Inclination: 99.3 °
Period: 102.1 minutes
Semi major axis: 7236 km
RCS: 0.0037 m2 (small)
Launch date: May 10, 1999
Source: People's Republic of China (PRC)
Launch site: Taiyaun Space Center, China (TSC)

Note: This is SATELLITE DEBRIS
aabbcc
Your satellite tracking list
Your tracking list is empty




NASA's NSSDC Master Catalog

Two Line Element Set (TLE):
1 35240U 99025DQY 22184.11657102  .00000956  00000-0  55786-3 0  9993
2 35240  99.3457  71.7368 0058818  82.5542 278.2305 14.10197591753562
Source of the keplerian elements: AFSPC